DW7098 Weather Reports


time (UTC)temp
C
wind
direction
speed
KPH
gust
KPH
rain 1hr
cm
rain 24hr
cm
rain mn
cm
humidity
%
barometer
mb
20260905130113 11 63 0.0 3.2 0.00 0.00 0.00
20260905120107 11 66 0.0 6.4 0.00 0.00 0.00
20260905113048 11 65 1.6 4.8 0.00 0.00 0.00
20260905110101 11 91 0.0 1.6 0.00 0.00 0.00
20260905103035 11 91 0.0 3.2 0.00 0.00 0.00
20260905093030 12 73 0.0 4.8 0.00 0.00 0.00
20260905083102 12 66 0.0 4.8 0.00 0.00 0.00
20260905073050 12 117 0.0 0.0 0.00 0.00 0.00
20260905070106 12 117 0.0 1.6 0.00 0.00 0.00
20260905063034 13 158 0.0 0.0 0.00 0.00 0.00
20260905053036 13 68 0.0 0.0 0.00 0.00 0.00
20260905050124 14 68 0.0 3.2 0.00 0.00 0.00
20260905043037 15 72 1.6 3.2 0.00 0.00 0.00
20260905040106 15 67 0.0 3.2 0.00 0.00 0.00
20260905030115 16 65 0.0 1.6 0.00 0.00 0.00
20260905023056 17 65 0.0 1.6 0.00 0.00 0.00
20260905020104 17 65 0.0 3.2 0.00 0.00 0.00
20260905013052 18 73 0.0 6.4 0.00 0.00 0.00
20260905010107 18 193 0.0 6.4 0.00 0.00 0.00
20260905003100 19 76 1.6 9.7 0.00 0.00 0.00
20260905000106 18 73 1.6 6.4 0.00 0.00 0.00
20260904233047 19 72 1.6 8.0 0.00 0.00 0.00
20260904223049 21 301 3.2 9.7 0.00 0.00 0.00
20260904220116 22 50 3.2 8.0 0.00 0.00 0.00
20260904213104 21 66 3.2 9.7 0.00 0.00 0.00
20260904203041 19 300 1.6 9.7 0.00 0.00 0.00
20260904200124 20 27 4.8 12.9 0.00 0.00 0.00
20260904193045 18 54 3.2 17.7 0.00 0.00 0.00
20260904190121 17 130 6.4 11.3 0.00 0.00 0.00
20260904183042 16 56 6.4 11.3 0.00 0.00 0.00
20260904170120 13 83 1.6 6.4 0.00 0.00 0.00
20260904160120 12 102 1.6 4.8 0.00 0.00 0.00
20260904143049 10 82 0.0 1.6 0.00 0.00 0.00
20260904140119 10 80 0.0 1.6 0.00 0.00 0.00
20260904133038 10 109 0.0 1.6 0.00 0.00 0.00